Vertical_Velocity
1 1 -0 -0 -1 -1 -1 -1 -1 -1 -1 -0 0 -0 -1 -1 -1 -2 -2 -1 -1 1 2 -2 -5 -4 -2 -0 8 5 6 5 2 0 -3 -4 -1 0 -0 -2 -0 -4 -3
-1 0 -1 -2 -1 -0 0 -1 -1 -1 0 -1 -1 -1 0 -1 -1 -1 -2 -1 -1 -2 -0 -1 -2 -1 -0 -0 13 24 9 17 3 7 -1 -8 -5 -1 -2 -2 2 -4 -2
0 -4 -2 -3 -2 -2 -2 -1 -1 -1 -1 -0 -2 0 -0 1 -1 -2 -2 0 -0 -2 -0 1 0 3 4 -1 -6 -19 -35 -5 -0 7 3 5 -1 -3 -3 1 -3 -3 -3
-5 -1 2 5 3 7 5 4 -0 2 6 0 1 -1 1 -0 3 2 2 -2 1 3 -3 0 -1 1 10 7 10 -1 -19 -6 1 1 4 1 -4 1 2 6 -10 -0 -2
-2 10 6 4 7 -0 2 27 10 4 3 6 1 -3 -8 -2 2 -2 -1 2 1 -1 -2 0 -1 0 9 7 -1 2 39 1 2 2 3 2 -1 -6 0 -2 1 1 -1
-4 2 9 6 -3 15 24 -16 26 -3 -1 -6 -22 -4 3 -7 -1 -6 -4 1 -2 -1 -1 -1 -1 0 3 0 -0 -1 4 3 0 -3 2 -1 -3 2 0 -2 1 -6 2
19 32 14 17 51 -34 82 2 -19 1 -5 -2 1 1 1 -2 -1 -4 -4 -3 -4 -1 -2 1 -1 -4 2 0 2 1 -1 2 0 -1 -3 -2 -2 -1 -5 3 -1 -2 3
5 -3 -29 11 -34 11 -6 -2 -11 -3 -3 0 -0 -3 -1 1 2 -1 -3 -5 -3 -2 -0 -1 1 2 -3 2 -1 -3 -1 4 2 2 -4 -2 -1 -0 -5 3 3 2 1
-0 2 5 -9 -9 -15 -12 3 -3 -1 -5 -4 -1 -0 5 2 -3 -4 -4 -2 -2 -2 -4 2 -5 -1 1 4 -0 0 0 1 7 -1 -1 -3 1 -1 -4 2 3 -1 5
6 9 8 7 6 4 5 5 6 1 4 -1 3 -0 -4 -1 4 -2 -4 -6 -3 -2 0 -4 1 0 2 2 -1 -2 -1 -4 7 -1 0 0 -1 0 -2 0 1 -0 9
-3 -3 1 6 11 7 6 7 5 1 -2 0 -2 5 2 -1 3 2 -6 -4 -7 -3 -0 2 -4 11 -6 4 -0 -0 -2 -5 7 2 2 -1 -1 1 -2 -2 4 3 -1
2 1 -0 -1 -0 -2 -5 0 -2 -4 -2 1 -4 1 1 2 -1 -0 -3 -5 -7 -8 -4 3 1 5 3 1 1 0 -3 -1 -1 5 -1 2 -4 -1 0 -4 2 1 -2
-1 -1 -2 -2 -1 -0 -1 -0 -3 -3 -4 -1 -4 -4 -0 -2 -3 -2 -1 -4 -3 -5 -2 0 -7 -5 2 1 2 -3 -3 -2 -2 -0 5 2 -3 -0 -0 -2 -2 1 3
1 1 0 -1 -0 -3 -2 -3 -2 -1 -0 -0 -0 0 3 2 4 4 -6 -1 -10 -7 -7 -5 -0 -3 -2 1 5 1 -7 -1 -5 2 4 4 -5 4 -4 2 -4 0 1
-1 -5 -4 -4 -1 1 2 -0 0 1 -7 -3 -0 -1 -4 3 1 -3 -3 -8 -7 -1 -5 -2 -8 5 -5 -4 3 6 -1 -4 2 -2 2 5 -1 0 1 -0 -1 -5 2
-5 -3 -2 -5 -6 -6 -5 -0 -1 -7 -3 -2 -2 -6 1 -6 -7 -1 -3 -2 -1 -7 -7 -1 -4 3 -0 -4 -2 5 2 -1 2 -2 -1 1 4 -3 -0 1 1 -1 -3
-2 0 -1 -3 -2 -1 -1 -4 -2 9 -2 -6 -6 -5 -6 2 1 -5 1 4 4 1 -1 -3 -4 0 5 -2 -4 1 5 4 -4 3 -1 1 6 2 -2 1 1 1 -2
-1 0 -4 -2 -2 -2 -4 -5 -6 -6 -1 10 -4 -6 -1 -4 -5 -7 -1 -4 1 3 1 6 2 -3 -0 2 -0 -2 1 4 1 2 0 -2 6 -0 -4 3 1 1 2
-0 -1 -6 -5 -2 -5 -3 -3 -4 -3 -3 -2 2 7 -6 -10 -3 -4 -6 -5 -2 1 9 8 6 6 -1 4 0 3 3 1 2 1 2 -4 2 2 0 0 2 -1 1
-3 -2 -3 -2 0 -1 -4 -5 -3 -2 -3 -2 -0 -5 2 -10 -5 1 -4 -1 -6 -0 9 9 5 -4 7 1 2 3 4 3 2 5 9 -0 28 6 3 5 -3 0 1
-1 -0 -3 -5 -4 -4 -2 -1 -3 -3 -1 1 0 -2 -3 -6 3 -6 -0 -1 -4 2 12 37 7 -1 -5 5 -2 0 1 5 3 12 -16 -3 -1 12 2 1 0 0 -1
-3 -2 -4 -3 -4 -4 -1 -3 -0 -1 -2 -2 -1 -0 -6 -5 -3 1 -6 2 -6 8 22 1 7 7 2 1 2 -2 -1 5 8 8 4 6 20 19 1 1 0 5 1
-3 -3 -4 -4 -2 -3 -2 -2 -2 -0 0 -2 -4 -2 -1 -4 -4 0 -4 -2 -1 1 -1 8 -7 40 -4 -12 -11 3 -2 -3 4 13 11 5 3 14 -6 5 1 6 2
-2 -2 -1 -2 -1 -1 -3 -1 1 -1 -2 1 0 -2 -2 -2 -3 -4 -5 -2 2 -4 -2 -1 -11 1 -5 -5 -3 -5 -3 -2 -1 -1 -0 12 13 27 5 13 -6 1 1
-2 -3 -3 -3 -0 -1 -1 1 0 -1 -0 -0 -1 -2 -1 -0 1 -2 -4 -4 1 6 -5 4 -1 1 2 2 4 1 -2 -4 -7 -1 -7 4 10 6 -4 -4 -2 1 -0
-4 -5 -4 -3 -2 -0 -0 -1 -0 -1 -2 -2 -3 -2 -1 -0 -1 -1 -2 -4 -5 -2 1 4 3 1 7 3 -3 -7 -5 -3 -5 -0 -8 -0 4 3 3 -3 7 4 1
Height
5933 5933 5933 5933 5933 5933 5934 5934 5934 5934 5934 5933 5933 5933 5933 5931 5930 5929 5927 5925 5923 5921 5919 5916 5914 5910 5907 5904 5898 5891 5889 5887 5884 5877 5869 5859 5852 5851 5844 5838 5827 5819 5811
5930 5930 5930 5931 5931 5931 5932 5932 5932 5932 5932 5931 5931 5931 5931 5930 5929 5927 5925 5922 5920 5917 5915 5912 5910 5906 5904 5900 5893 5876 5882 5878 5880 5875 5865 5857 5853 5847 5840 5831 5823 5813 5805
5925 5926 5926 5927 5928 5928 5929 5929 5929 5929 5928 5928 5929 5928 5928 5927 5926 5924 5922 5919 5916 5913 5911 5908 5907 5904 5900 5894 5891 5884 5880 5878 5876 5871 5865 5859 5852 5846 5837 5827 5820 5809 5801
5922 5923 5923 5923 5923 5922 5923 5924 5925 5925 5925 5925 5923 5922 5922 5922 5922 5921 5918 5915 5913 5910 5907 5904 5901 5899 5896 5890 5889 5884 5877 5875 5872 5865 5861 5854 5849 5844 5836 5827 5816 5807 5799
5917 5915 5913 5915 5915 5915 5916 5917 5917 5917 5918 5919 5918 5916 5915 5914 5916 5915 5913 5910 5908 5904 5902 5899 5896 5894 5891 5886 5881 5880 5874 5871 5867 5864 5858 5852 5847 5840 5833 5823 5815 5806 5796
5909 5907 5908 5909 5909 5902 5904 5906 5900 5908 5910 5910 5907 5909 5908 5907 5907 5906 5905 5903 5901 5899 5896 5893 5890 5887 5886 5881 5876 5876 5872 5868 5865 5861 5855 5849 5843 5838 5832 5823 5815 5804 5797
5896 5893 5893 5889 5889 5880 5880 5898 5900 5899 5897 5899 5900 5900 5899 5899 5897 5896 5894 5893 5892 5890 5888 5885 5882 5879 5880 5876 5872 5870 5869 5864 5860 5856 5851 5846 5839 5834 5829 5822 5815 5807 5799
5885 5881 5873 5878 5878 5888 5883 5885 5889 5889 5889 5889 5889 5889 5888 5887 5885 5883 5882 5881 5880 5879 5877 5875 5874 5871 5869 5867 5867 5863 5862 5859 5856 5852 5847 5843 5838 5833 5828 5823 5815 5809 5801
5879 5875 5874 5872 5873 5873 5873 5879 5880 5878 5877 5876 5876 5876 5874 5874 5872 5871 5869 5868 5867 5867 5865 5863 5862 5861 5860 5857 5858 5854 5855 5852 5850 5847 5844 5840 5837 5832 5827 5823 5817 5811 5804
5871 5870 5867 5865 5864 5864 5866 5868 5867 5865 5864 5863 5863 5862 5861 5860 5858 5856 5853 5853 5852 5852 5851 5850 5850 5849 5847 5848 5844 5846 5843 5843 5844 5841 5839 5837 5834 5831 5826 5823 5819 5813 5810
5859 5858 5857 5856 5854 5854 5854 5852 5851 5849 5847 5847 5847 5846 5844 5842 5841 5839 5837 5836 5836 5835 5834 5835 5835 5837 5833 5834 5832 5833 5834 5833 5836 5834 5833 5831 5830 5827 5824 5822 5820 5815 5812
5846 5845 5843 5843 5841 5839 5837 5836 5833 5831 5830 5829 5828 5828 5826 5824 5821 5820 5818 5818 5818 5819 5819 5819 5819 5819 5820 5818 5818 5820 5821 5822 5824 5825 5825 5824 5824 5822 5821 5819 5818 5815 5814
5832 5831 5829 5827 5825 5822 5821 5819 5816 5813 5811 5809 5807 5807 5805 5802 5800 5798 5796 5796 5797 5800 5801 5800 5799 5800 5802 5802 5804 5804 5808 5810 5812 5815 5815 5817 5817 5817 5817 5815 5815 5814 5813
5817 5815 5813 5811 5809 5806 5803 5801 5799 5796 5793 5791 5788 5786 5784 5781 5779 5776 5774 5776 5775 5777 5779 5781 5782 5783 5784 5787 5789 5791 5793 5797 5798 5802 5804 5807 5808 5811 5810 5811 5810 5811 5811
5802 5800 5799 5797 5795 5792 5789 5786 5783 5780 5775 5773 5770 5767 5764 5763 5759 5756 5753 5751 5753 5754 5756 5759 5763 5765 5767 5770 5773 5776 5780 5783 5787 5790 5791 5796 5798 5803 5803 5805 5804 5807 5808
5788 5786 5783 5781 5778 5776 5774 5771 5766 5762 5757 5753 5750 5746 5744 5741 5737 5735 5733 5732 5730 5732 5734 5738 5742 5745 5748 5752 5757 5761 5766 5770 5773 5776 5779 5783 5788 5791 5795 5797 5798 5800 5803
5771 5769 5766 5763 5760 5757 5754 5751 5749 5745 5740 5735 5731 5726 5723 5721 5717 5714 5713 5711 5711 5712 5714 5718 5720 5723 5729 5732 5739 5745 5750 5756 5759 5763 5766 5771 5776 5779 5785 5788 5792 5792 5796
5755 5752 5749 5747 5744 5741 5737 5733 5730 5727 5723 5719 5712 5710 5706 5702 5698 5695 5691 5690 5689 5691 5695 5700 5703 5705 5708 5713 5719 5726 5733 5740 5745 5750 5754 5758 5763 5767 5772 5779 5782 5784 5787
5741 5737 5735 5732 5729 5725 5721 5717 5713 5710 5706 5703 5699 5695 5691 5688 5685 5681 5677 5673 5671 5671 5673 5679 5685 5690 5693 5697 5702 5707 5715 5722 5730 5736 5742 5747 5752 5757 5761 5768 5773 5775 5777
5727 5724 5722 5719 5716 5712 5708 5703 5699 5696 5692 5688 5685 5682 5678 5674 5670 5667 5663 5659 5655 5652 5651 5655 5661 5669 5676 5682 5687 5692 5698 5706 5713 5722 5728 5732 5734 5742 5749 5756 5762 5766 5769
5714 5712 5709 5706 5702 5698 5694 5690 5685 5683 5679 5676 5672 5669 5665 5662 5658 5652 5649 5645 5639 5634 5631 5631 5645 5650 5657 5666 5671 5677 5683 5692 5697 5702 5707 5714 5722 5727 5735 5741 5748 5754 5759
5702 5700 5696 5693 5689 5685 5680 5676 5673 5670 5668 5664 5660 5656 5652 5648 5644 5640 5637 5633 5627 5622 5627 5628 5633 5641 5644 5648 5655 5660 5666 5674 5682 5685 5693 5701 5701 5707 5721 5728 5735 5742 5748
5690 5687 5684 5681 5676 5672 5667 5663 5660 5657 5654 5651 5648 5644 5640 5636 5632 5627 5624 5621 5618 5615 5618 5620 5624 5626 5630 5635 5642 5647 5650 5657 5666 5672 5680 5689 5693 5698 5708 5717 5726 5732 5738
5678 5675 5672 5668 5664 5660 5655 5651 5647 5644 5641 5638 5636 5633 5629 5625 5620 5616 5612 5610 5609 5607 5605 5609 5611 5612 5616 5619 5627 5632 5637 5642 5647 5654 5667 5671 5682 5687 5696 5707 5714 5720 5727
5667 5664 5660 5656 5652 5648 5643 5638 5634 5632 5629 5626 5624 5621 5618 5614 5610 5605 5601 5599 5599 5599 5598 5597 5598 5601 5604 5610 5615 5620 5623 5626 5630 5636 5648 5658 5669 5679 5688 5697 5702 5710 5716
5655 5652 5649 5644 5640 5635 5629 5625 5622 5620 5618 5616 5613 5611 5609 5605 5600 5595 5591 5589 5588 5589 5591 5591 5590 5591 5595 5600 5604 5607 5609 5613 5617 5623 5634 5648 5659 5669 5679 5685 5692 5699 5706